Location: Gebenbach
(49.5378°N, 11.8735°E)
Time: 11:28:17
(UTC+00:00)

Cosmos 1697 Rocket - Pass Details

Date: 29 October 2020
Orbit: 831 x 845 km, 71.0° (Epoch: 24 November)

Event Time Altitude Azimuth Distance (km) Brightness Sun altitude
Rises 17:07:04 0° 181° (S) 3,364 5.9 -12.2°
Reaches altitude 10° 17:09:38 10° 173° (S) 2,436 5.1 -12.6°
Maximum altitude 17:14:43 37° 107° (ESE) 1,268 3.2 -13.4°
Enters shadow 17:19:47 10° 42° (NE) 2,434 4.7 -14.2°
